Tracking 30105 objects as of 24-Jan-2025
HD Live streaming from Space Station
objects crossing your sky now

IRIDIUM 44

Track IRIDIUM 44 now!
10-day predictions
IRIDIUM 44 is classified as:


NORAD ID: 25078
Int'l Code: 1997-077B
Perigee: 763.1 km
Apogee: 768.1 km
Inclination: 86.4 °
Period: 100.0 minutes
Semi major axis: 7136 km
RCS: 3.743 m2 (large)
Launch date: December 8, 1997
Source: United States (US)
Launch site: Taiyaun Space Center, China (TSC)
Your satellite tracking list
Your tracking list is empty




NASA's NSSDC Master Catalog

Two Line Element Set (TLE):
1 25078U 97077B   25024.78851185  .00001189  00000-0  37154-3 0  9990
2 25078  86.3946 281.8035 0003510 110.0914 250.0663 14.40004035423093
Source of the keplerian elements: AFSPC